TimeEST,TemperatureF,Dew PointF,Humidity,Sea Level PressureIn,VisibilityMPH,Wind Direction,Wind SpeedMPH,Gust SpeedMPH,PrecipitationIn,Events,Conditions,WindDirDegrees,DateUTC
12:54 AM,44.1,30.9,60,29.98,10.0,North,8.1,-,N/A,,Clear,10,2012-11-07 05:54:00
1:54 AM,44.1,32.0,63,29.96,10.0,North,10.4,-,N/A,,Clear,10,2012-11-07 06:54:00
2:54 AM,43.0,32.0,65,29.95,10.0,North,11.5,-,N/A,,Overcast,360,2012-11-07 07:54:00
3:54 AM,43.0,30.9,62,29.94,10.0,NNW,8.1,-,N/A,,Mostly Cloudy,340,2012-11-07 08:54:00
4:54 AM,42.1,30.0,62,29.93,10.0,North,13.8,-,N/A,,Overcast,350,2012-11-07 09:54:00
5:54 AM,42.1,30.0,62,29.93,10.0,North,9.2,-,N/A,,Overcast,350,2012-11-07 10:54:00
6:54 AM,42.1,32.0,67,29.95,10.0,North,9.2,-,0.00,Rain,Light Rain,350,2012-11-07 11:54:00
7:54 AM,41.0,34.0,76,29.94,10.0,NNW,10.4,-,0.00,Rain,Light Rain,340,2012-11-07 12:54:00
8:54 AM,43.0,33.1,68,29.93,10.0,North,12.7,-,0.00,,Scattered Clouds,350,2012-11-07 13:54:00
9:19 AM,43.0,30.9,62,29.92,10.0,North,15.0,-,N/A,,Mostly Cloudy,360,2012-11-07 14:19:00
9:44 AM,43.0,30.9,62,29.91,10.0,North,15.0,-,N/A,,Mostly Cloudy,10,2012-11-07 14:44:00
9:54 AM,43.0,30.9,62,29.91,10.0,North,12.7,-,N/A,,Mostly Cloudy,350,2012-11-07 14:54:00
10:54 AM,44.1,30.0,58,29.91,10.0,North,12.7,20.7,N/A,,Overcast,10,2012-11-07 15:54:00
11:54 AM,44.1,32.0,63,29.90,10.0,North,12.7,-,N/A,,Overcast,360,2012-11-07 16:54:00
12:54 PM,45.0,30.9,58,29.90,10.0,North,10.4,-,N/A,,Overcast,350,2012-11-07 17:54:00
1:54 PM,45.0,32.0,60,29.88,10.0,NNW,13.8,-,N/A,,Overcast,340,2012-11-07 18:54:00
2:54 PM,45.0,32.0,60,29.87,10.0,NNW,15.0,-,0.00,Rain,Light Rain,330,2012-11-07 19:54:00
3:54 PM,45.0,33.1,63,29.88,10.0,NNW,11.5,-,0.00,,Overcast,340,2012-11-07 20:54:00
4:54 PM,44.1,35.1,71,29.91,9.0,North,15.0,-,0.00,Rain,Light Rain,10,2012-11-07 21:54:00
5:54 PM,43.0,36.0,76,29.91,9.0,NNW,11.5,-,0.02,Rain,Light Rain,340,2012-11-07 22:54:00
6:54 PM,43.0,36.0,76,29.90,10.0,NW,9.2,-,0.01,,Overcast,320,2012-11-07 23:54:00
7:54 PM,45.0,34.0,65,29.91,10.0,North,13.8,-,0.00,Rain,Light Rain,360,2012-11-08 00:54:00
8:54 PM,43.0,35.1,74,29.90,10.0,NNW,11.5,-,0.03,Rain,Light Rain,330,2012-11-08 01:54:00
9:54 PM,43.0,36.0,76,29.90,8.0,NNW,12.7,-,0.03,Rain,Light Rain,330,2012-11-08 02:54:00
10:54 PM,42.1,36.0,79,29.89,6.0,NW,12.7,-,0.04,Rain,Light Rain,320,2012-11-08 03:54:00
11:54 PM,42.1,36.0,79,29.89,6.0,NNW,12.7,-,0.05,Rain,Light Rain,330,2012-11-08 04:54:00